Terminal Aerodrome Forecast
Issued by NWS

Current Version | Previous Version | Graphics & Text | Print | Product List | Glossary On
Versions: 1 2 3 4 5 6 7 8 9 10 11 12 13 14 15 16 17 18 19 20 21 22 23 24 25 26 27 28 29 30 31 32 33 34 35 36 37 38 39 40 41 42 43
000
FTUS41 KRNK 251722
TAFLWB
TAF
KLWB 251722Z 2518/2618 25006KT P6SM OVC030
     FM252000 20006KT P6SM OVC025
     FM260100 VRB03KT 4SM BR OVC008
     FM260500 VRB03KT 1SM BR OVC004
     FM261000 00000KT 1/2SM DZ OVC001
     FM261300 22005KT P6SM -RA SCT007 OVC015=

USA.gov is the U.S. government's official web portal to all federal, state and local government web resources and services.